Location: Unspecified
(48.7670°N, 0.0000°E)
Time: 18:01:20
(UTC+00:00)

Altair - Pass Details

Date: 02 July 2019
Orbit: 1501 x 1683 km, 47.2° (Epoch: 24 August)

Event Time Altitude Azimuth Distance (km) Brightness Sun altitude
Rises 14:19:31 0° 167° (SSE) 4,627 10.2 52.9°
Reaches altitude 10° 14:25:57 10° 135° (SE) 3,676 9.5 52.0°
Maximum altitude 14:27:58 11° 122° (ESE) 3,620 9.4 51.7°
Drops below altitude 10° 14:30:00 10° 109° (ESE) 3,703 9.4 51.4°
Sets 14:36:32 0° 76° (ENE) 4,738 9.7 50.5°
